| time (UTC) | temp C | wind direction | speed KPH | gust KPH | rain 1hr cm | rain 24hr cm | rain mn cm | humidity % | barometer mb |
| 20260504001632 | 13 | 253 | 3.2 | 16.1 | 0.00 | 0.00 | 0.00 | 44 | 1010.1 |
| 20260504001132 | 13 | 253 | 4.8 | 17.7 | 0.00 | 0.00 | 0.00 | 44 | 1010.0 |
| 20260504000633 | 13 | 254 | 4.8 | 19.3 | 0.00 | 0.00 | 0.00 | 43 | 1010.0 |
| 20260504000125 | 13 | 253 | 3.2 | 19.3 | 0.00 | 0.00 | 0.00 | 43 | 1010.0 |
| 20260503235855 | 13 | 253 | 3.2 | 17.7 | 0.00 | 0.00 | 0.00 | 43 | 1010.1 |
| 20260503235124 | 13 | 253 | 3.2 | 17.7 | 0.00 | 0.00 | 0.00 | 42 | 1010.0 |
| 20260503234626 | 14 | 254 | 3.2 | 17.7 | 0.00 | 0.00 | 0.00 | 41 | 1009.9 |
| 20260503234125 | 14 | 254 | 3.2 | 17.7 | 0.00 | 0.00 | 0.00 | 42 | 1009.9 |
| 20260503233624 | 14 | 254 | 4.8 | 14.5 | 0.00 | 0.00 | 0.00 | 42 | 1009.9 |
| 20260503233119 | 14 | 254 | 4.8 | 14.5 | 0.00 | 0.00 | 0.00 | 41 | 1009.9 |
| 20260503232619 | 14 | 254 | 3.2 | 16.1 | 0.00 | 0.00 | 0.00 | 41 | 1009.9 |
| 20260503232351 | 14 | 254 | 1.6 | 16.1 | 0.00 | 0.00 | 0.00 | 42 | 1010.0 |
| 20260503231620 | 14 | 254 | 3.2 | 17.7 | 0.00 | 0.00 | 0.00 | 40 | 1010.0 |
| 20260503231119 | 14 | 254 | 4.8 | 17.7 | 0.00 | 0.00 | 0.00 | 40 | 1010.0 |
| 20260503230619 | 14 | 254 | 3.2 | 17.7 | 0.00 | 0.00 | 0.00 | 40 | 1010.0 |
| 20260503230117 | 14 | 254 | 3.2 | 17.7 | 0.00 | 0.00 | 0.00 | 40 | 1010.0 |
| 20260503225616 | 14 | 255 | 3.2 | 17.7 | 0.00 | 0.00 | 0.00 | 40 | 1010.0 |
| 20260503225347 | 14 | 255 | 4.8 | 17.7 | 0.00 | 0.00 | 0.00 | 40 | 1010.0 |
| 20260503224615 | 15 | 256 | 4.8 | 17.7 | 0.00 | 0.00 | 0.00 | 40 | 1010.1 |
| 20260503224113 | 15 | 256 | 4.8 | 20.9 | 0.00 | 0.00 | 0.00 | 41 | 1010.1 |
| 20260503223615 | 15 | 255 | 4.8 | 20.9 | 0.00 | 0.00 | 0.00 | 40 | 1010.1 |
| 20260503223106 | 15 | 258 | 4.8 | 17.7 | 0.00 | 0.00 | 0.00 | 39 | 1010.0 |
| 20260503222606 | 15 | 259 | 8.0 | 27.4 | 0.00 | 0.00 | 0.00 | 39 | 1010.1 |
| 20260503222106 | 15 | 259 | 9.7 | 27.4 | 0.00 | 0.00 | 0.00 | 39 | 1010.1 |
| 20260503221607 | 15 | 254 | 6.4 | 24.1 | 0.00 | 0.00 | 0.00 | 38 | 1010.1 |
| 20260503221107 | 15 | 252 | 4.8 | 29.0 | 0.00 | 0.00 | 0.00 | 39 | 1009.9 |
| 20260503220612 | 16 | 252 | 4.8 | 16.1 | 0.00 | 0.00 | 0.00 | 38 | 1009.7 |
| 20260503220607 | 15 | 254 | 4.8 | 29.0 | 0.00 | 0.00 | 0.00 | 38 | 1009.7 |
| 20260503215602 | 16 | 253 | 4.8 | 24.1 | 0.00 | 0.00 | 0.00 | 38 | 1009.9 |
| 20260503215335 | 15 | 253 | 6.4 | 24.1 | 0.00 | 0.00 | 0.00 | 38 | 1009.9 |
| 20260503214603 | 15 | 254 | 8.0 | 19.3 | 0.00 | 0.00 | 0.00 | 38 | 1009.9 |
| 20260503214101 | 15 | 248 | 6.4 | 19.3 | 0.00 | 0.00 | 0.00 | 39 | 1009.9 |
| 20260503213601 | 15 | 250 | 6.4 | 20.9 | 0.00 | 0.00 | 0.00 | 39 | 1009.9 |
| 20260503213331 | 15 | 251 | 4.8 | 20.9 | 0.00 | 0.00 | 0.00 | 39 | 1009.9 |
| 20260503212559 | 15 | 248 | 4.8 | 19.3 | 0.00 | 0.00 | 0.00 | 38 | 1010.0 |
| 20260503212059 | 15 | 249 | 4.8 | 17.7 | 0.00 | 0.00 | 0.00 | 39 | 1009.9 |
| 20260503211557 | 15 | 252 | 6.4 | 17.7 | 0.00 | 0.00 | 0.00 | 38 | 1009.9 |
| 20260503211327 | 15 | 252 | 6.4 | 20.9 | 0.00 | 0.00 | 0.00 | 38 | 1009.9 |
| 20260503210557 | 15 | 251 | 6.4 | 20.9 | 0.00 | 0.00 | 0.00 | 39 | 1009.7 |
| 20260503210056 | 15 | 254 | 6.4 | 20.9 | 0.00 | 0.00 | 0.00 | 39 | 1009.9 |
| 20260503210052 | 15 | 263 | 6.4 | 20.9 | 0.00 | 0.00 | 0.00 | 39 | 1009.9 |
| 20260503205325 | 15 | 244 | 8.0 | 20.9 | 0.00 | 0.00 | 0.00 | 39 | 1009.9 |
| 20260503204551 | 15 | 250 | 6.4 | 20.9 | 0.00 | 0.00 | 0.00 | 38 | 1009.9 |
| 20260503204055 | 15 | 253 | 3.2 | 16.1 | 0.00 | 0.00 | 0.00 | 39 | 1010.1 |
| 20260503204050 | 15 | 250 | 4.8 | 19.3 | 0.00 | 0.00 | 0.00 | 38 | 1010.1 |
| 20260503203314 | 15 | 254 | 6.4 | 27.4 | 0.00 | 0.00 | 0.00 | 39 | 1010.1 |
| 20260503202541 | 15 | 254 | 8.0 | 27.4 | 0.00 | 0.00 | 0.00 | 38 | 1010.3 |
| 20260503202044 | 15 | 244 | 6.4 | 20.9 | 0.00 | 0.00 | 0.00 | 38 | 1010.2 |
| 20260503201543 | 15 | 241 | 8.0 | 27.4 | 0.00 | 0.00 | 0.00 | 39 | 1010.2 |
| 20260503201315 | 15 | 240 | 8.0 | 27.4 | 0.00 | 0.00 | 0.00 | 37 | 1010.4 |
| 20260503200813 | 15 | 247 | 4.8 | 19.3 | 0.00 | 0.00 | 0.00 | 38 | 1010.5 |
| 20260503200308 | 15 | 250 | 6.4 | 19.3 | 0.00 | 0.00 | 0.00 | 39 | 1010.5 |
| 20260503195538 | 15 | 250 | 8.0 | 20.9 | 0.00 | 0.00 | 0.00 | 39 | 1010.5 |
| 20260503195036 | 15 | 246 | 6.4 | 20.9 | 0.00 | 0.00 | 0.00 | 38 | 1010.8 |
| 20260503194538 | 14 | 252 | 6.4 | 20.9 | 0.00 | 0.00 | 0.00 | 40 | 1010.6 |
| 20260503194037 | 15 | 255 | 4.8 | 19.3 | 0.00 | 0.00 | 0.00 | 40 | 1010.9 |
| 20260503193538 | 15 | 259 | 4.8 | 29.0 | 0.00 | 0.00 | 0.00 | 40 | 1010.9 |
| 20260503193307 | 15 | 259 | 6.4 | 29.0 | 0.00 | 0.00 | 0.00 | 40 | 1011.0 |
| 20260503192535 | 14 | 240 | 4.8 | 19.3 | 0.00 | 0.00 | 0.00 | 41 | 1011.0 |
| 20260503192034 | 13 | 238 | 4.8 | 12.9 | 0.00 | 0.00 | 0.00 | 41 | 1011.3 |
| 20260503191533 | 13 | 238 | 4.8 | 20.9 | 0.00 | 0.00 | 0.00 | 41 | 1011.5 |
| 20260503191036 | 13 | 238 | 6.4 | 20.9 | 0.00 | 0.00 | 0.00 | 41 | 1011.3 |
| 20260503190807 | 13 | 234 | 6.4 | 16.1 | 0.00 | 0.00 | 0.00 | 40 | 1011.3 |
| 20260503190308 | 13 | 231 | 4.8 | 17.7 | 0.00 | 0.00 | 0.00 | 42 | 1011.5 |
| 20260503185531 | 13 | 231 | 6.4 | 20.9 | 0.00 | 0.00 | 0.00 | 40 | 1011.6 |
| 20260503185029 | 13 | 229 | 6.4 | 22.5 | 0.00 | 0.00 | 0.00 | 41 | 1011.6 |
| 20260503184531 | 14 | 223 | 6.4 | 22.5 | 0.00 | 0.00 | 0.00 | 41 | 1011.5 |
| 20260503184032 | 13 | 298 | 6.4 | 20.9 | 0.00 | 0.00 | 0.00 | 41 | 1011.5 |
| 20260503183530 | 13 | 296 | 6.4 | 20.9 | 0.00 | 0.00 | 0.00 | 40 | 1011.8 |
| 20260503183302 | 13 | 305 | 6.4 | 20.9 | 0.00 | 0.00 | 0.00 | 41 | 1011.7 |
| 20260503182527 | 13 | 325 | 4.8 | 17.7 | 0.00 | 0.00 | 0.00 | 42 | 1011.7 |
| 20260503182027 | 13 | 325 | 4.8 | 20.9 | 0.00 | 0.00 | 0.00 | 41 | 1011.8 |
| 20260503181526 | 13 | 326 | 8.0 | 22.5 | 0.00 | 0.00 | 0.00 | 41 | 1012.0 |
| 20260503181027 | 13 | 340 | 9.7 | 25.7 | 0.00 | 0.00 | 0.00 | 40 | 1012.0 |
| 20260503180529 | 13 | 333 | 8.0 | 25.7 | 0.00 | 0.00 | 0.00 | 40 | 1012.2 |
| 20260503180033 | 13 | 254 | 4.8 | 16.1 | 0.00 | 0.00 | 0.00 | 43 | 1012.1 |
| 20260503180027 | 14 | 241 | 4.8 | 20.9 | 0.00 | 0.00 | 0.00 | 41 | 1012.1 |
| 20260503175022 | 13 | 254 | 4.8 | 17.7 | 0.00 | 0.00 | 0.00 | 41 | 1012.1 |
| 20260503174522 | 13 | 255 | 6.4 | 22.5 | 0.00 | 0.00 | 0.00 | 41 | 1012.0 |
| 20260503174022 | 13 | 259 | 8.0 | 22.5 | 0.00 | 0.00 | 0.00 | 41 | 1012.2 |
| 20260503173753 | 13 | 256 | 6.4 | 22.5 | 0.00 | 0.00 | 0.00 | 40 | 1012.4 |
| 20260503173022 | 13 | 234 | 6.4 | 25.7 | 0.00 | 0.00 | 0.00 | 42 | 1012.2 |
| 20260503172753 | 13 | 234 | 6.4 | 25.7 | 0.00 | 0.00 | 0.00 | 41 | 1012.2 |
| 20260503172023 | 13 | 246 | 6.4 | 24.1 | 0.00 | 0.00 | 0.00 | 43 | 1012.1 |
| 20260503171517 | 12 | 246 | 8.0 | 24.1 | 0.00 | 0.00 | 0.00 | 43 | 1012.3 |
| 20260503171013 | 12 | 248 | 8.0 | 24.1 | 0.00 | 0.00 | 0.00 | 44 | 1012.3 |
| 20260503170513 | 12 | 250 | 8.0 | 24.1 | 0.00 | 0.00 | 0.00 | 43 | 1012.4 |
| 20260503151004 | 10 | 198 | 3.2 | 12.9 | 0.00 | 0.00 | 0.00 | 46 | 1013.6 |
| 20260503150735 | 10 | 198 | 3.2 | 12.9 | 0.00 | 0.03 | 0.00 | 48 | 1013.5 |
| 20260503131208 | 3 | 198 | 1.6 | 9.7 | 0.00 | 0.08 | 0.00 | 85 | 1014.3 |
| 20260503130436 | 2 | 198 | 1.6 | 8.0 | 0.00 | 0.08 | 0.00 | 91 | 1014.2 |
| 20260503110420 | 0 | 198 | 0.0 | 0.0 | 0.00 | 0.08 | 0.00 | 94 | 1014.1 |
| 20260503090358 | -1 | 198 | 0.0 | 0.0 | 0.00 | 0.08 | 0.00 | 93 | 1013.7 |
| 20260503081612 | -1 | 198 | 0.0 | 0.0 | 0.00 | 0.08 | 0.00 | 92 | 1013.6 |
| 20260503080841 | -1 | 198 | 0.0 | 0.0 | 0.00 | 0.08 | 0.00 | 92 | 1013.6 |
| 20260503080334 | -1 | 198 | 0.0 | 0.0 | 0.00 | 0.08 | 0.00 | 92 | 1013.6 |
| 20260503072819 | -1 | 198 | 0.0 | 0.0 | 0.00 | 0.08 | 0.00 | 92 | 1013.6 |
| 20260503072321 | -1 | 198 | 0.0 | 0.0 | 0.00 | 0.08 | 0.00 | 92 | 1013.5 |
| 20260503072316 | -1 | 198 | 0.0 | 0.0 | 0.00 | 0.08 | 0.00 | 92 | 1013.6 |
| 20260503071543 | -1 | 198 | 0.0 | 0.0 | 0.00 | 0.08 | 0.00 | 92 | 1013.5 |
| 20260503070808 | -1 | 198 | 0.0 | 0.0 | 0.00 | 0.08 | 0.00 | 91 | 1013.5 |
| 20260503070307 | -1 | 198 | 0.0 | 0.0 | 0.00 | 0.08 | 0.00 | 91 | 1013.4 |
| 20260503060245 | 0 | 198 | 0.0 | 0.0 | 0.00 | 0.08 | 0.00 | 89 | 1013.8 |
| 20260503054740 | 0 | 198 | 0.0 | 0.0 | 0.00 | 0.08 | 0.00 | 89 | 1013.8 |
| 20260503054239 | 0 | 198 | 0.0 | 0.0 | 0.00 | 0.08 | 0.00 | 89 | 1013.8 |
| 20260503054011 | 0 | 198 | 0.0 | 0.0 | 0.00 | 0.08 | 0.00 | 88 | 1013.8 |
| 20260503053238 | 0 | 198 | 0.0 | 0.0 | 0.00 | 0.08 | 0.00 | 88 | 1013.9 |
| 20260503052738 | 0 | 198 | 0.0 | 0.0 | 0.00 | 0.08 | 0.00 | 88 | 1013.9 |
| 20260503052503 | 0 | 198 | 0.0 | 0.0 | 0.00 | 0.08 | 0.00 | 87 | 1013.9 |
| 20260503052003 | 0 | 198 | 0.0 | 0.0 | 0.00 | 0.08 | 0.00 | 87 | 1013.9 |
| 20260503051228 | 0 | 198 | 0.0 | 0.0 | 0.00 | 0.08 | 0.00 | 87 | 1013.9 |
| 20260503050727 | 0 | 198 | 0.0 | 0.0 | 0.00 | 0.08 | 0.00 | 87 | 1013.9 |
| 20260503050456 | 0 | 198 | 0.0 | 0.0 | 0.00 | 0.08 | 0.00 | 87 | 1013.9 |
| 20260503045724 | 0 | 198 | 0.0 | 0.0 | 0.00 | 0.08 | 0.00 | 86 | 1014.0 |
| 20260503045455 | 0 | 198 | 0.0 | 0.0 | 0.00 | 0.08 | 0.00 | 86 | 1014.0 |
| 20260503044724 | 0 | 198 | 0.0 | 0.0 | 0.00 | 0.08 | 0.00 | 86 | 1014.0 |
| 20260503044224 | 0 | 198 | 0.0 | 0.0 | 0.00 | 0.08 | 0.00 | 86 | 1013.9 |
| 20260503043956 | 1 | 198 | 0.0 | 0.0 | 0.00 | 0.08 | 0.00 | 86 | 1014.0 |
| 20260503043454 | 1 | 198 | 0.0 | 0.0 | 0.00 | 0.08 | 0.00 | 86 | 1014.0 |
| 20260503042722 | 1 | 198 | 0.0 | 0.0 | 0.00 | 0.08 | 0.00 | 85 | 1013.9 |
| 20260503042218 | 1 | 198 | 0.0 | 0.0 | 0.00 | 0.08 | 0.00 | 85 | 1014.0 |
| 20260503041718 | 1 | 198 | 0.0 | 0.0 | 0.00 | 0.08 | 0.00 | 84 | 1014.0 |
| 20260503041218 | 1 | 198 | 0.0 | 0.0 | 0.00 | 0.08 | 0.00 | 84 | 1014.0 |
| 20260503040718 | 1 | 198 | 0.0 | 0.0 | 0.00 | 0.08 | 0.00 | 83 | 1014.0 |
| 20260503040217 | 2 | 198 | 0.0 | 0.0 | 0.00 | 0.08 | 0.00 | 83 | 1014.0 |
| 20260503035714 | 2 | 198 | 0.0 | 0.0 | 0.00 | 0.08 | 0.08 | 83 | 1014.0 |
| 20260503035207 | 2 | 198 | 0.0 | 0.0 | 0.00 | 0.08 | 0.08 | 82 | 1014.0 |
| 20260503034708 | 2 | 198 | 0.0 | 0.0 | 0.00 | 0.08 | 0.08 | 82 | 1014.0 |
| 20260503034434 | 2 | 198 | 0.0 | 0.0 | 0.00 | 0.08 | 0.08 | 82 | 1014.0 |
| 20260503033701 | 2 | 198 | 0.0 | 0.0 | 0.00 | 0.08 | 0.08 | 82 | 1013.9 |
| 20260503033203 | 2 | 198 | 0.0 | 0.0 | 0.00 | 0.08 | 0.08 | 81 | 1013.9 |
| 20260503032656 | 2 | 198 | 0.0 | 0.0 | 0.00 | 0.08 | 0.08 | 81 | 1014.0 |
| 20260503032200 | 2 | 198 | 0.0 | 0.0 | 0.00 | 0.08 | 0.08 | 80 | 1014.0 |
| 20260503032154 | 2 | 198 | 0.0 | 0.0 | 0.00 | 0.08 | 0.08 | 81 | 1014.0 |
| 20260503031149 | 2 | 198 | 0.0 | 0.0 | 0.00 | 0.08 | 0.08 | 79 | 1014.1 |
| 20260503030651 | 2 | 198 | 0.0 | 0.0 | 0.00 | 0.08 | 0.08 | 79 | 1014.1 |
| 20260503030142 | 2 | 198 | 0.0 | 0.0 | 0.00 | 0.08 | 0.08 | 79 | 1014.1 |
| 20260503025913 | 3 | 198 | 0.0 | 0.0 | 0.00 | 0.08 | 0.08 | 79 | 1014.2 |
| 20260503025411 | 3 | 198 | 0.0 | 0.0 | 0.00 | 0.08 | 0.08 | 78 | 1014.1 |
| 20260503024637 | 3 | 198 | 0.0 | 0.0 | 0.00 | 0.08 | 0.08 | 78 | 1014.2 |
| 20260503024139 | 3 | 198 | 0.0 | 0.0 | 0.00 | 0.08 | 0.08 | 78 | 1014.2 |
| 20260503023906 | 3 | 198 | 0.0 | 0.0 | 0.00 | 0.08 | 0.08 | 78 | 1014.3 |
| 20260503023133 | 3 | 198 | 0.0 | 0.0 | 0.00 | 0.08 | 0.08 | 78 | 1014.3 |
| 20260503022633 | 3 | 198 | 0.0 | 0.0 | 0.00 | 0.08 | 0.08 | 77 | 1014.3 |
| 20260503022133 | 3 | 198 | 0.0 | 0.0 | 0.00 | 0.08 | 0.08 | 76 | 1014.3 |
| 20260503021631 | 3 | 198 | 0.0 | 0.0 | 0.00 | 0.08 | 0.08 | 76 | 1014.3 |
| 20260503021131 | 3 | 198 | 0.0 | 0.0 | 0.00 | 0.08 | 0.08 | 74 | 1014.3 |
| 20260503020858 | 3 | 198 | 0.0 | 0.0 | 0.00 | 0.08 | 0.08 | 74 | 1014.3 |
| 20260503020359 | 3 | 198 | 0.0 | 0.0 | 0.00 | 0.08 | 0.08 | 74 | 1014.3 |
| 20260503015628 | 3 | 198 | 0.0 | 0.0 | 0.00 | 0.08 | 0.08 | 73 | 1014.2 |
| 20260503015128 | 3 | 198 | 0.0 | 0.0 | 0.00 | 0.08 | 0.08 | 72 | 1014.2 |
| 20260503014856 | 3 | 198 | 0.0 | 0.0 | 0.00 | 0.08 | 0.08 | 76 | 1014.2 |
| 20260503014125 | 3 | 198 | 0.0 | 0.0 | 0.00 | 0.08 | 0.08 | 71 | 1014.2 |
| 20260503013619 | 4 | 198 | 0.0 | 0.0 | 0.00 | 0.08 | 0.08 | 71 | 1014.2 |
| 20260503013117 | 4 | 198 | 0.0 | 0.0 | 0.00 | 0.08 | 0.08 | 71 | 1014.2 |
| 20260503012615 | 4 | 198 | 0.0 | 0.0 | 0.00 | 0.08 | 0.08 | 70 | 1014.1 |
| 20260503012114 | 4 | 198 | 0.0 | 0.0 | 0.00 | 0.08 | 0.08 | 69 | 1014.1 |
| 20260503011612 | 4 | 198 | 0.0 | 0.0 | 0.00 | 0.08 | 0.08 | 68 | 1014.2 |
| 20260503011107 | 4 | 198 | 0.0 | 0.0 | 0.00 | 0.08 | 0.08 | 68 | 1014.1 |
| 20260503010605 | 4 | 198 | 0.0 | 0.0 | 0.00 | 0.08 | 0.08 | 66 | 1014.1 |
| 20260503010103 | 5 | 198 | 0.0 | 0.0 | 0.00 | 0.08 | 0.08 | 65 | 1014.0 |
| 20260503005601 | 5 | 198 | 0.0 | 1.6 | 0.00 | 0.08 | 0.08 | 64 | 1014.0 |
| 20260503005102 | 5 | 198 | 0.0 | 1.6 | 0.00 | 0.08 | 0.08 | 67 | 1013.9 |
| 20260503004827 | 5 | 198 | 0.0 | 1.6 | 0.00 | 0.08 | 0.08 | 67 | 1013.8 |
| 20260503004053 | 5 | 198 | 0.0 | 1.6 | 0.00 | 0.08 | 0.08 | 64 | 1013.7 |
| 20260503003551 | 5 | 198 | 0.0 | 1.6 | 0.00 | 0.08 | 0.08 | 66 | 1013.6 |
| 20260503003319 | 5 | 198 | 0.0 | 1.6 | 0.00 | 0.08 | 0.08 | 66 | 1013.7 |
| 20260503002821 | 5 | 198 | 0.0 | 1.6 | 0.00 | 0.08 | 0.08 | 65 | 1013.8 |
| 20260503002043 | 5 | 198 | 0.0 | 1.6 | 0.00 | 0.08 | 0.08 | 63 | 1013.7 |